Location: G�migny
(47.9646°N, 1.6950°E)
Time: 09:08:10
(UTC+00:00)

Cosmos 2058 Rocket - Pass Details

Date: 23 October 2019
Orbit: 611 x 638 km, 82.5° (Epoch: 19 November)

Event Time Altitude Azimuth Distance (km) Brightness Sun altitude
Rises 17:13:46 0° 179° (S) 2,864 6.6 -4.6°
Reaches altitude 10° 17:15:59 10° 176° (S) 1,964 5.7 -4.9°
Maximum altitude 17:20:16 62° 96° (E) 691 3.1 -5.6°
Drops below altitude 10° 17:24:36 10° 16° (NNE) 1,982 5.4 -6.4°
Sets 17:26:51 0° 13° (NNE) 2,894 6.3 -6.7°
